Regional Weather Roundup
Issued by NWS Spokane, WA

Home | Current Version | Previous Version | Text Only | Print | Product List | Glossary On
Versions: 1 2 3 4 5 6 7 8 9 10 11 12 13 14 15 16 17 18 19 20 21 22 23 24 25 26 27 28 29 30 31 32 33 34 35 36 37 38 39 40 41 42 43 44 45 46 47 48 49 50
000
NZUS01 KOTX 300110
RWROTX
EASTERN WASHINGTON/NORTHERN IDAHO ROUNDUP
NATIONAL WEATHER SERVICE, SPOKANE WA
600 PM PDT SAT AUG 29 2015

Note: "fair" indicated few or no clouds below 12,000 feet with no
significant weather and/or obstructions to visibility.

...NORTHEAST WASHINGTON AND NORTHERN IDAHO PANHANDLE...

CITY           SKY/WX    TMP DP  RH WIND       PRES   REMARKS
SPOKANE INTL   PTSUNNY   72  41  32 SW20      29.82S BLWGDUST
SPOKANE DOWNTO CLOUDY    75  40  28 W16G23    29.81S HAZE
COEUR D ALENE  PTSUNNY   66  48  52 SE14G20   29.83S
DEER PARK      CLOUDY    72  40  31 S18G29    29.80F HAZE
SANDPOINT      PTSUNNY   64  46  52 E6        29.83F
BONNERS FERRY  FAIR      64  46  52 CALM      29.83F

...SOUTHEAST WASHINGTON AND SOUTHERN IDAHO PANHANDLE...

CITY           SKY/WX    TMP DP  RH WIND       PRES   REMARKS
WALLA WALLA    MOSUNNY   80  41  24 W16G25    29.81S
PULLMAN/MOSCOW CLOUDY    67  54  63 CALM      29.87F
LOWELL           N/A     67  61  81 CALM      29.80S

...COLUMBIA BASIN...

CITY           SKY/WX    TMP DP  RH WIND       PRES   REMARKS
EPHRATA        CLOUDY    75  47  36 SW23G33   29.75S
MOSES LAKE     CLOUDY    73  47  39 SW14G24   29.78R
TRI CITIES     MOSUNNY   77  45  32 W8        29.78R
HERMISTON      MOSUNNY   77  45  32 W17       29.78S
PENDLETON      MOSUNNY   75  42  30 NW17G28   29.83R

...EAST SLOPES CASCADES...

CITY           SKY/WX    TMP DP  RH WIND       PRES   REMARKS
THE DALLES     PTSUNNY   72  52  49 NW15G21   29.82R
YAKIMA         PTSUNNY   74  48  39 SW20G32   29.79F
ELLENSBURG     PTSUNNY   71  45  39 W13       29.79R
WENATCHEE      PTSUNNY   76  40  27 SW15G22   29.72F
OMAK           PTSUNNY   77  38  24 S18       29.69R

...SOUTHERN BRITISH COLUMBIA...

CITY           SKY/WX    TMP DP  RH WIND       PRES   REMARKS
PENTICTON      PTSUNNY   77  50  38 S16G24    29.59F
CRANBROOK      PTSUNNY   66  45  45 S20       29.80F

...WESTERN MONTANA...

CITY           SKY/WX    TMP DP  RH WIND       PRES   REMARKS
MISSOULA       CLOUDY    76  43  30 N12       29.81R HAZE

...NEIGHBORING CITIES...

CITY           SKY/WX    TMP DP  RH WIND       PRES   REMARKS
SEATTLE        CLOUDY    68  55  63 S16G25    29.76S
CALGARY        PTSUNNY   77  43  29 SW21G35   29.58R SMOKE



USA.gov is the U.S. government's official web portal to all federal, state and local government web resources and services.